Regional Weather Roundup
Issued by NWS Charleston, WV

Home | Current Version | Previous Version | Graphics & Text | Print | Product List | Glossary On
Versions: 1 2 3 4 5 6 7 8 9 10 11 12 13 14 15 16 17 18 19 20 21 22 23 24 25 26 27 28 29 30 31 32 33 34 35 36 37 38 39 40 41 42 43 44 45 46 47 48 49 50
000
ASUS41 KRLX 170110
RWRRLX
West Virginia Regional Weather Roundup
National Weather Service Charleston WV
800 PM EST SAT DEC 16 2017

Note: "fair" indicates few or no clouds below 12,000 feet with no
significant weather and/or obstructions to visibility.

WVZ003-170200-
Northern Panhandle of West Virginia

CITY           SKY/WX    TMP DP  RH WIND       PRES   REMARKS
WHEELING       CLEAR     38  24  57 SW5       30.11R
$$

WVZ009-170200-
Northwest West Virginia

CITY           SKY/WX    TMP DP  RH WIND       PRES   REMARKS
PARKERSBURG    CLEAR     42  25  50 S5        30.15R
$$

WVZ006-170200-
Western West Virginia

CITY           SKY/WX    TMP DP  RH WIND       PRES   REMARKS
HUNTINGTON     CLEAR     42  25  50 S5        30.16R
$$

WVZ015-170200-
West Central West Virginia

CITY           SKY/WX    TMP DP  RH WIND       PRES   REMARKS
CHARLESTON     CLEAR     41  24  51 SW3       30.16R
$$

WVZ022-031-170200-
North Central West Virginia

CITY           SKY/WX    TMP DP  RH WIND       PRES   REMARKS
CLARKSBURG     CLEAR     39  24  55 S3        30.13R
MORGANTOWN     CLEAR     36  23  59 S3        30.14R
$$

WVZ025-035-042-045-170200-
Southern West Virginia

CITY           SKY/WX    TMP DP  RH WIND       PRES   REMARKS
BECKLEY        CLOUDY    36  22  56 SW6       30.15R
LOGAN            N/A     41  25  52 CALM      30.16R
BLUEFIELD      CLOUDY    33  21  61 W12       30.17R
LEWISBURG      CLEAR     34  23  62 SW3       30.16R
$$

WVZ047-170200-
Northern Mountains of West Virginia

CITY           SKY/WX    TMP DP  RH WIND       PRES   REMARKS
ELKINS         CLEAR     26  22  84 CALM      30.14R
$$

WVZ052-170200-
Eastern Panhandle of West Virginia

CITY           SKY/WX    TMP DP  RH WIND       PRES   REMARKS
MARTINSBURG    CLEAR     36  22  56 CALM      30.12R
PETERSBURG     CLEAR     32  23  70 CALM      30.13R
$$



USA.gov is the U.S. government's official web portal to all federal, state and local government web resources and services.